Location: ??????
(41.3747°N, 22.5491°E)
Time: 15:17:17
(UTC+00:00)

NOSS 3-3 (C) - Pass Details

Date: 01 December 2020
Orbit: 820 x 1392 km, 63.4° (Epoch: 14 January)

Event Time Altitude Azimuth Distance (km) Brightness Sun altitude
Rises 17:34:55 0° 324° (NW) 4,015 7.6 -28.2°
Reaches altitude 10° 17:37:30 10° 324° (NW) 3,127 7.0 -28.7°
Maximum altitude 17:45:12 87° 238° (WSW) 1,305 4.5 -30.2°
Enters shadow 17:48:01 47° 151° (SSE) 1,701 5.0 -30.7°
